Location: Ecklingerode
(51.5036°N, 10.3122°E)
Time: 13:31:58
(UTC+00:00)

Cosmos 1408 - Pass Details

Date: 29 October 2020
Orbit: 470 x 492 km, 82.6° (Epoch: 28 November)

Event Time Altitude Azimuth Distance (km) Brightness Sun altitude
Rises 18:11:29 0° 343° (NNW) 2,559 6.5 -21.5°
Reaches altitude 10° 18:13:40 10° 335° (NNW) 1,677 5.6 -21.8°
Maximum altitude 18:17:05 38° 267° (W) 764 4.0 -22.3°
Drops below altitude 10° 18:20:30 10° 198° (SSW) 1,675 5.4 -22.9°
Sets 18:22:41 0° 190° (S) 2,554 6.3 -23.2°
